User: anonymous   Login
Location: �A�n Sefra
(34.9681°N, 0.4346°E)
Time: 19:20:38
(UTC+00:00)
Language:

Cosmos 2082 Rocket - Orbit

View from above orbital plane
View from above orbital plane
View from above satellite
View from above satellite

Ground track
Ground track

The orbit data is extracted from the following two-line orbital elements,

1 20625U 90046B   19341.67958177  .00000144  00000-0  99495-4 0  9991
2 20625  70.9999  52.8248 0014408 183.6829 176.4190 14.14645609525609
Epoch (UTC): 07 December 2019 16:18:35
Eccentricity: 0.0014408
inclination: 70.9999°
perigee height: 833 km
apogee height: 854 km
right ascension of ascending node: 52.8248°
argument of perigee: 183.6829°
revolutions per day: 14.14645609
mean anomaly at epoch: 176.4190°
orbit number at epoch: 52560

The dashed part of the orbit path shows where the satellite is in the earth's shadow,  

DLR